Location: Winthrop
(48.4780°N, 120.1850°W)
Time: 23:39:18
(UTC-07:00)

S-56A Canister/Altair - Pass Details

Date: 03 June 2023
Orbit: 640 x 2489 km, 38.9° (Epoch: 29 September)

Event Time Altitude Azimuth Distance (km) Brightness Sun altitude
Rises 02:50:19 0° 276° (W) 6,140 11.9 -15.0°
Reaches altitude 10° 02:54:36 10° 271° (W) 5,154 11.5 -14.6°
Maximum altitude 03:08:06 43° 208° (SSW) 2,975 10.0 -13.5°
Drops below altitude 10° 03:19:14 10° 142° (SE) 4,270 11.1 -12.6°
Sets 03:22:26 0° 136° (SE) 5,031 11.6 -12.3°
